Time,TemperatureF,DewpointF,PressureIn,WindDirection,WindDirectionDegrees,WindSpeedMPH,WindSpeedGustMPH,Humidity,HourlyPrecipIn,Conditions,Clouds,dailyrainin,SolarRadiationWatts/m^2,SoftwareType,DateUTC
2013-12-09 00:11:00,9.0,1.0,-100.00,East,90,4.0,6.0,69,-99.99,,,0.09,0.000000,,2013-12-09 07:11:00,
2013-12-09 09:43:00,7.0,-4.0,-100.00,North,352,13.0,21.0,61,-99.99,,,0.09,0.000000,,2013-12-09 16:43:00,
2013-12-09 10:42:00,12.0,-3.0,-100.00,North,350,13.0,23.0,50,0.00,,,0.09,49.000000,,2013-12-09 17:42:00,
2013-12-09 11:22:00,16.0,-2.0,-100.00,NNW,348,12.0,23.0,45,0.00,,,0.08,267.000000,,2013-12-09 18:22:00,
2013-12-09 11:32:00,16.0,-2.0,-100.00,NNW,348,12.0,23.0,45,0.00,,,0.08,267.000000,,2013-12-09 18:32:00,
2013-12-09 11:43:00,16.0,-2.0,-100.00,NNW,348,12.0,23.0,45,0.00,,,0.08,267.000000,,2013-12-09 18:43:00,
2013-12-09 12:22:00,19.0,-1.0,-100.00,North,350,11.0,20.0,41,0.00,,,0.05,470.000000,,2013-12-09 19:22:00,
2013-12-09 12:32:00,19.0,-1.0,-100.00,North,350,11.0,20.0,41,0.00,,,0.05,470.000000,,2013-12-09 19:32:00,
2013-12-09 12:42:00,19.0,-1.0,-100.00,North,350,11.0,20.0,41,0.00,,,0.05,470.000000,,2013-12-09 19:42:00,
2013-12-09 13:11:00,20.0,-2.0,-100.00,NNE,14,14.0,23.0,37,0.00,,,0.04,627.000000,,2013-12-09 20:11:00,
2013-12-09 13:21:00,20.0,-2.0,-100.00,NNE,14,14.0,23.0,37,0.00,,,0.04,627.000000,,2013-12-09 20:21:00,
2013-12-09 13:32:00,20.0,-2.0,-100.00,NNE,14,14.0,23.0,37,0.00,,,0.04,627.000000,,2013-12-09 20:32:00,
2013-12-09 13:42:00,20.0,-2.0,-100.00,NNE,14,14.0,23.0,37,0.00,,,0.04,627.000000,,2013-12-09 20:42:00,
2013-12-09 14:12:00,21.0,-2.0,-100.00,North,352,11.0,24.0,35,0.00,,,0.00,711.000000,,2013-12-09 21:12:00,
2013-12-09 14:22:00,21.0,-2.0,-100.00,North,352,11.0,24.0,35,0.00,,,0.00,711.000000,,2013-12-09 21:22:00,
2013-12-09 14:33:00,21.0,-2.0,-100.00,North,352,11.0,24.0,35,0.00,,,0.00,711.000000,,2013-12-09 21:33:00,
2013-12-09 14:43:00,21.0,-2.0,-100.00,North,352,11.0,24.0,35,0.00,,,0.00,711.000000,,2013-12-09 21:43:00,
2013-12-09 15:22:00,21.0,-3.0,-100.00,North,352,11.0,19.0,34,0.00,,,0.00,715.000000,,2013-12-09 22:22:00,
2013-12-09 15:33:00,21.0,-3.0,-100.00,North,352,11.0,19.0,34,0.00,,,0.00,715.000000,,2013-12-09 22:33:00,
2013-12-09 15:43:00,21.0,-3.0,-100.00,North,352,11.0,19.0,34,0.00,,,0.00,715.000000,,2013-12-09 22:43:00,
2013-12-09 16:12:00,21.0,-4.0,-100.00,NNW,346,9.0,18.0,32,0.00,,,0.00,644.000000,,2013-12-09 23:12:00,
2013-12-09 16:22:00,21.0,-4.0,-100.00,NNW,346,9.0,18.0,32,0.00,,,0.00,644.000000,,2013-12-09 23:22:00,
2013-12-09 16:32:00,21.0,-4.0,-100.00,NNW,346,9.0,18.0,32,0.00,,,0.00,644.000000,,2013-12-09 23:32:00,
2013-12-09 16:43:00,21.0,-4.0,-100.00,NNW,346,9.0,18.0,32,0.00,,,0.00,644.000000,,2013-12-09 23:43:00,
2013-12-09 17:12:00,21.0,-3.0,-100.00,East,81,7.0,16.0,34,0.00,,,0.00,500.000000,,2013-12-10 00:12:00,
2013-12-09 17:42:00,21.0,-3.0,-100.00,East,81,7.0,16.0,34,0.00,,,0.00,500.000000,,2013-12-10 00:42:00,
2013-12-09 18:11:00,16.0,-5.0,-100.00,NNW,331,7.0,13.0,39,0.00,,,0.00,303.000000,,2013-12-10 01:11:00,
2013-12-09 18:22:00,16.0,-5.0,-100.00,NNW,331,7.0,13.0,39,0.00,,,0.00,303.000000,,2013-12-10 01:22:00,
2013-12-09 18:32:00,16.0,-5.0,-100.00,NNW,331,7.0,13.0,39,0.00,,,0.00,303.000000,,2013-12-10 01:32:00,
2013-12-09 18:42:00,16.0,-5.0,-100.00,NNW,331,7.0,13.0,39,0.00,,,0.00,303.000000,,2013-12-10 01:42:00,
2013-12-09 19:12:00,10.0,-6.0,-100.00,NNW,338,8.0,15.0,47,0.00,,,0.00,83.000000,,2013-12-10 02:12:00,
2013-12-09 19:21:00,10.0,-6.0,-100.00,NNW,338,8.0,15.0,47,0.00,,,0.00,83.000000,,2013-12-10 02:21:00,
2013-12-09 19:32:00,10.0,-6.0,-100.00,NNW,338,8.0,15.0,47,0.00,,,0.00,83.000000,,2013-12-10 02:32:00,
2013-12-09 19:42:00,10.0,-6.0,-100.00,NNW,338,8.0,15.0,47,0.00,,,0.00,83.000000,,2013-12-10 02:42:00,
2013-12-09 20:11:00,8.0,-6.0,-100.00,NNW,339,10.0,14.0,51,0.00,,,0.00,0.000000,,2013-12-10 03:11:00,
2013-12-09 20:21:00,8.0,-6.0,-100.00,NNW,339,10.0,14.0,51,0.00,,,0.00,0.000000,,2013-12-10 03:21:00,
2013-12-09 20:33:00,8.0,-6.0,-100.00,NNW,339,10.0,14.0,51,0.00,,,0.00,0.000000,,2013-12-10 03:33:00,
2013-12-09 20:43:00,8.0,-6.0,-100.00,NNW,339,10.0,14.0,51,0.00,,,0.00,0.000000,,2013-12-10 03:43:00,
2013-12-09 21:13:00,8.0,-7.0,-100.00,NNW,340,8.0,15.0,50,0.00,,,0.00,0.000000,,2013-12-10 04:13:00,
2013-12-09 21:23:00,8.0,-7.0,-100.00,NNW,340,8.0,15.0,50,0.00,,,0.00,0.000000,,2013-12-10 04:23:00,
2013-12-09 21:33:00,8.0,-7.0,-100.00,NNW,340,8.0,15.0,50,0.00,,,0.00,0.000000,,2013-12-10 04:33:00,
2013-12-09 21:43:00,8.0,-7.0,-100.00,NNW,340,8.0,15.0,50,0.00,,,0.00,0.000000,,2013-12-10 04:43:00,
2013-12-09 22:12:00,6.0,-8.0,-100.00,ENE,62,2.0,17.0,52,0.00,,,0.00,0.000000,,2013-12-10 05:12:00,
2013-12-09 22:22:00,6.0,-8.0,-100.00,ENE,62,2.0,17.0,52,0.00,,,0.00,0.000000,,2013-12-10 05:22:00,
2013-12-09 22:33:00,6.0,-8.0,-100.00,ENE,62,2.0,17.0,52,0.00,,,0.00,0.000000,,2013-12-10 05:33:00,
2013-12-09 22:42:00,6.0,-8.0,-100.00,ENE,62,2.0,17.0,52,0.00,,,0.00,0.000000,,2013-12-10 05:42:00,
2013-12-09 23:11:00,5.0,-8.0,-100.00,SE,125,3.0,8.0,55,0.00,,,0.00,0.000000,,2013-12-10 06:11:00,
2013-12-09 23:22:00,5.0,-8.0,-100.00,SE,125,3.0,8.0,55,0.00,,,0.00,0.000000,,2013-12-10 06:22:00,
2013-12-09 23:32:00,5.0,-8.0,-100.00,SE,125,3.0,8.0,55,0.00,,,0.00,0.000000,,2013-12-10 06:32:00,
2013-12-09 23:42:00,5.0,-8.0,-100.00,SE,125,3.0,8.0,55,0.00,,,0.00,0.000000,,2013-12-10 06:42:00,